Theta_e
320 320 321 321 321 323 324 324 322 324 324 317 319 320 320 323 324 326 327 329 328 332 333 335 340 342 342 340 340 339 340 343 343 337 335 342 343 342 338 330 327 318 313 316 318 317 317 320 323 325 324 323 323 324 324 326 328 327 327 325 325 325 326 327 328 328 328 330 332 333 334 334 332 332 330 326 323 318 312 316 321 321 321 317 320 329 332 333 333 332 329 321 315 314 313 314 314
320 320 320 321 322 324 325 324 321 321 320 316 318 320 321 323 323 324 324 324 324 329 335 338 341 343 343 343 342 341 344 346 346 347 343 339 342 343 336 332 326 318 314 318 326 328 328 325 323 326 325 322 323 325 326 327 328 327 326 325 326 325 326 327 327 327 328 330 331 333 332 332 330 329 328 324 319 314 316 325 324 320 324 325 327 330 332 333 333 332 328 318 313 313 313 313 313
320 320 320 321 322 323 324 324 320 318 317 315 318 321 322 322 323 322 323 322 323 329 337 340 342 344 343 342 342 342 345 347 346 347 344 340 345 343 334 333 326 319 314 318 332 336 337 330 322 327 324 322 323 325 328 328 328 327 326 325 326 325 326 326 327 327 329 331 331 330 329 328 327 328 329 326 317 311 316 322 318 318 325 329 330 332 332 332 331 329 323 315 313 313 313 313 313
319 320 320 321 323 324 325 324 322 318 316 316 317 321 323 321 322 321 323 322 323 329 336 339 342 346 344 343 343 344 346 348 347 346 346 344 346 340 333 332 325 321 315 319 334 338 339 329 323 326 323 322 322 327 331 331 329 326 325 325 325 325 326 326 327 329 331 333 330 328 328 325 325 327 325 320 314 310 312 313 313 319 327 330 332 333 332 331 329 327 320 314 313 313 313 313 313
319 320 320 321 323 324 325 324 323 319 318 319 319 321 323 322 322 322 323 322 324 327 332 334 340 347 346 346 346 346 349 349 347 346 347 344 344 338 331 330 324 321 317 322 335 340 338 326 322 324 323 322 322 330 333 330 328 325 325 325 325 325 326 327 329 330 331 331 329 326 323 321 325 325 317 312 310 311 311 311 312 317 325 329 330 330 331 329 327 326 320 315 314 314 314 314 315
319 320 321 321 323 323 323 321 321 320 320 323 321 321 322 322 322 323 323 323 325 328 331 333 337 343 346 348 347 348 349 350 349 346 346 344 342 337 331 327 323 317 315 323 334 341 337 322 320 323 322 321 326 333 331 329 328 325 324 325 325 325 326 328 329 328 327 327 325 324 319 320 325 321 313 310 310 311 310 310 312 314 320 326 327 327 328 326 324 322 319 315 315 315 315 315 316
320 321 322 322 323 323 323 320 320 321 321 323 322 322 322 322 323 323 323 323 326 329 331 334 336 338 344 347 347 347 344 346 349 347 345 343 340 337 331 325 320 314 315 322 334 340 335 320 318 322 321 322 331 334 329 330 330 325 324 325 324 325 326 327 327 324 324 324 320 318 316 316 318 314 310 311 310 312 311 310 312 313 316 321 324 326 326 324 322 319 317 318 318 317 317 318 319
319 321 321 322 323 323 323 321 322 322 321 321 322 321 322 322 322 322 322 323 323 327 329 334 337 337 345 346 347 348 344 345 346 345 343 340 338 336 328 320 315 314 316 321 333 337 328 318 319 322 321 325 334 331 328 333 333 327 324 325 325 324 325 325 325 321 320 319 314 311 311 310 310 309 309 310 311 312 310 309 312 313 314 316 319 321 321 321 319 318 319 319 319 319 319 320 320
320 321 321 322 323 323 321 321 322 323 322 320 321 321 322 322 321 323 322 323 323 325 329 333 335 337 345 345 348 349 345 344 344 342 340 339 336 331 322 316 314 316 315 320 332 334 322 317 320 321 322 327 332 328 331 335 333 328 324 325 325 324 324 323 321 317 313 311 309 308 309 309 309 310 310 311 312 311 309 309 311 314 315 315 316 317 318 318 319 320 320 320 321 321 320 320 320
320 321 322 323 323 320 319 321 322 323 322 321 321 321 322 322 322 323 321 323 324 324 331 335 336 338 343 344 349 350 345 343 344 342 338 337 331 324 318 316 317 315 314 318 332 337 325 317 320 321 323 328 327 327 333 335 332 327 324 325 324 323 321 319 316 313 310 308 308 308 309 309 310 310 311 311 311 309 309 309 310 312 314 315 316 317 318 319 320 321 321 321 321 321 320 320 320
321 321 322 322 320 318 318 320 323 324 322 320 321 321 321 322 321 322 322 323 323 324 332 336 338 340 343 346 350 348 342 343 345 342 336 333 326 321 319 318 318 316 316 318 330 339 332 316 320 323 323 327 326 328 333 333 330 327 326 325 323 321 318 316 313 310 309 308 308 308 309 309 310 311 310 310 310 309 309 309 309 310 312 314 316 317 318 319 320 321 321 321 321 320 320 320 320
321 322 322 321 319 319 321 321 323 325 322 321 321 321 321 322 322 322 322 322 323 325 329 333 337 340 343 346 350 346 340 343 345 341 334 330 325 323 322 321 323 320 318 322 332 340 338 325 324 329 327 326 325 329 332 330 329 327 326 325 322 318 315 313 311 309 308 308 308 308 309 309 310 311 311 310 310 309 309 309 309 309 310 312 314 316 317 318 319 320 321 321 320 320 320 320 321
321 322 321 320 321 321 322 322 323 324 322 321 320 320 321 322 322 322 321 323 323 325 329 335 339 341 344 348 350 346 340 342 345 341 332 331 329 327 327 327 328 323 322 330 336 340 340 332 331 334 332 328 328 330 331 329 328 327 326 325 321 316 312 311 309 308 308 308 308 308 308 308 310 311 311 309 309 309 309 309 309 309 309 310 313 314 316 317 318 319 320 320 320 320 319 319 320
321 322 321 321 322 322 321 321 322 322 321 321 319 320 321 321 321 321 322 323 325 328 334 340 342 342 345 347 347 347 344 342 344 340 334 334 334 334 333 333 330 328 331 336 339 339 338 334 335 337 333 332 332 332 331 330 329 327 325 323 319 314 311 310 308 308 308 308 309 309 309 309 309 311 311 310 309 309 309 310 310 309 309 309 311 312 313 315 315 316 317 318 318 317 317 317 317
320 321 321 321 321 321 321 321 321 320 321 321 319 319 321 320 320 322 323 324 329 334 339 343 342 343 344 343 344 349 346 342 343 341 337 337 338 339 338 337 334 334 337 339 339 339 338 337 337 336 333 334 334 333 332 331 330 326 324 321 317 313 311 309 308 308 308 308 309 309 310 310 310 310 310 311 310 309 310 310 310 310 310 310 309 310 311 311 312 312 312 313 313 313 313 313 314
319 321 321 320 319 319 320 321 321 320 320 320 318 320 321 321 322 326 328 328 334 338 342 346 342 344 346 343 345 348 345 341 342 343 341 341 341 341 340 340 338 338 339 339 339 338 338 338 336 335 335 335 334 333 332 332 330 326 323 320 315 313 311 309 309 309 309 310 310 311 312 312 312 311 311 311 311 311 310 311 311 311 311 311 310 310 310 310 310 310 310 310 310 310 311 311 311
318 320 320 319 319 319 320 321 321 320 320 319 318 320 321 324 329 332 333 331 335 340 345 348 343 344 347 346 347 345 341 340 342 344 344 344 343 343 341 340 340 340 339 339 339 337 338 337 336 334 334 335 336 334 333 334 330 325 322 319 316 313 310 310 310 311 311 312 312 313 314 314 314 313 313 312 311 311 311 311 311 311 312 312 312 311 311 311 311 312 312 312 312 313 312 312 313
318 319 319 318 319 320 321 322 321 321 321 319 319 321 320 324 332 333 334 334 333 337 344 347 345 345 345 346 345 341 340 340 343 344 344 344 343 343 342 341 340 340 340 340 338 337 337 337 338 334 334 335 336 335 334 334 331 328 325 318 317 315 310 311 313 317 316 314 314 317 317 316 319 320 320 319 317 315 314 313 312 312 311 311 311 312 312 313 313 313 313 313 313 313 314 319 323
318 319 319 318 321 322 322 322 321 322 320 321 320 321 321 321 329 332 330 333 332 332 339 345 347 347 345 345 343 340 339 341 343 344 344 344 344 344 342 341 340 340 340 339 338 337 337 337 338 335 335 335 334 335 334 334 332 331 330 322 318 315 311 316 320 323 322 319 320 322 322 321 326 329 329 329 327 326 324 322 321 319 318 317 318 320 321 322 322 321 319 317 316 319 324 327 331
318 319 319 320 321 321 323 322 321 322 320 322 321 320 322 319 325 330 328 330 331 327 331 337 342 347 346 345 344 341 340 342 343 344 345 345 345 344 342 341 340 341 339 339 337 335 336 337 336 334 335 335 333 333 333 335 333 333 333 326 324 318 316 325 327 327 327 324 325 324 325 326 328 332 333 334 333 333 332 331 330 329 328 327 329 331 331 330 330 330 328 326 327 331 333 333 333
318 319 319 320 322 321 322 321 321 322 320 322 322 320 321 320 323 328 325 327 330 327 328 327 329 342 345 344 344 343 341 342 342 344 345 345 345 343 342 342 340 340 339 339 336 333 335 336 334 333 335 334 333 333 333 335 333 333 333 328 329 325 322 329 329 329 328 325 325 322 325 328 329 332 334 336 335 334 334 334 334 334 334 332 333 335 335 334 335 335 335 334 335 335 335 334 334
318 318 320 321 322 321 321 321 321 321 321 321 321 321 320 320 321 323 323 323 325 326 328 325 324 336 342 338 340 343 342 342 342 343 345 345 345 343 342 341 339 339 338 338 338 335 336 335 334 334 334 333 333 334 334 335 333 333 332 329 331 330 326 330 330 330 326 322 325 324 328 330 331 334 334 335 334 332 333 334 334 335 335 334 335 337 336 336 337 337 336 336 336 335 335 335 334
317 318 319 320 321 321 321 321 321 320 321 321 321 321 320 320 320 320 323 323 324 326 327 326 326 335 340 337 337 340 340 341 341 342 344 346 345 344 343 341 339 337 336 337 338 337 336 335 334 333 334 333 334 335 334 335 333 333 332 328 331 331 328 329 330 328 323 325 329 328 330 332 333 335 334 334 333 332 333 334 335 334 335 335 335 337 336 335 336 335 335 335 334 334 334 334 335
316 318 319 319 320 320 321 321 320 320 320 320 321 320 320 320 319 322 323 322 326 328 327 327 330 338 342 341 339 337 339 340 342 343 345 346 345 344 344 342 339 337 336 337 338 337 336 335 333 333 334 334 335 335 334 334 333 334 331 327 330 330 330 331 330 328 324 326 329 330 332 333 334 334 334 334 333 333 334 334 335 334 336 336 334 336 337 335 334 333 333 333 334 334 333 333 333
315 317 319 319 319 319 320 320 319 320 319 320 320 319 321 319 321 326 324 324 329 330 329 330 335 342 343 343 341 338 341 343 344 346 346 345 344 344 344 342 339 336 337 338 338 337 336 336 335 333 334 334 335 334 334 334 332 334 330 326 330 327 329 332 327 325 326 325 327 331 333 333 335 334 334 334 333 334 334 334 335 335 335 335 333 334 335 334 333 333 332 333 334 334 334 331 332
315 316 319 318 319 318 319 319 319 320 319 319 319 319 320 319 321 324 324 329 332 330 330 335 340 344 344 344 343 340 341 344 346 347 345 344 343 343 343 342 340 337 338 338 337 337 336 336 335 334 334 333 334 334 334 334 333 333 330 329 330 326 328 329 324 326 327 327 330 331 333 334 335 335 334 334 333 334 334 334 335 335 334 333 334 334 334 335 335 333 331 331 332 334 334 331 332
316 316 317 318 318 318 318 319 319 319 319 319 318 318 319 319 319 320 328 332 330 330 332 338 343 344 345 345 344 342 342 345 346 346 345 344 343 342 342 341 339 337 339 339 337 338 337 336 335 334 334 333 334 335 334 334 333 332 332 330 328 327 327 325 326 329 328 329 332 332 333 334 334 334 333 333 333 334 334 335 334 335 334 333 334 334 333 333 332 331 328 327 329 332 333 332 332
316 316 316 316 317 317 318 318 318 318 318 318 317 319 318 319 319 319 329 329 327 334 335 339 343 344 346 346 346 345 345 347 347 346 345 344 343 342 342 340 337 337 338 339 338 338 337 336 335 333 334 334 335 335 334 333 333 332 332 329 326 325 324 325 329 330 329 331 332 333 334 334 334 333 333 333 333 334 335 335 335 335 335 333 334 334 332 330 327 328 328 328 329 332 332 332 332
315 315 314 315 316 316 317 317 319 318 318 318 317 318 316 320 322 321 327 329 333 341 339 338 341 342 346 347 347 347 346 347 346 345 345 344 343 342 341 340 338 339 340 340 340 339 337 335 334 334 334 334 335 337 335 333 334 333 329 327 327 326 325 328 330 329 329 331 331 334 335 334 334 333 333 333 333 334 334 334 334 334 333 333 333 333 332 329 327 329 330 330 331 332 332 332 332
314 314 314 315 314 314 316 317 318 317 318 318 317 315 315 320 322 323 333 337 340 343 339 337 339 342 346 347 347 347 347 347 347 346 344 344 344 342 341 340 340 341 341 340 340 339 338 335 334 334 334 334 335 336 335 334 336 334 328 330 333 330 328 329 329 327 328 331 332 334 334 334 334 333 333 333 334 334 334 334 333 333 333 333 333 332 333 331 330 331 332 331 331 331 331 331 331
313 313 313 314 312 313 316 316 317 317 317 317 317 314 315 321 319 326 338 338 337 336 334 334 338 343 345 347 347 347 347 347 347 346 345 344 344 343 341 341 340 341 341 340 340 340 338 335 335 335 334 336 335 335 336 335 336 334 330 334 335 331 328 328 328 328 330 331 333 334 334 334 334 334 333 334 334 334 333 333 333 333 333 334 333 332 332 332 332 332 331 331 332 331 331 331 331
313 312 312 313 312 314 316 316 316 316 317 317 316 314 316 320 319 332 338 335 331 329 329 331 336 343 345 346 347 347 348 347 346 346 345 344 343 342 342 341 341 341 341 340 340 340 338 335 335 334 334 336 335 335 336 335 336 334 333 335 334 330 327 328 328 330 331 332 334 335 334 334 334 334 334 334 334 333 333 333 333 333 332 334 333 331 332 333 333 332 330 330 331 331 330 330 330
312 312 312 312 312 314 315 316 317 317 317 316 316 315 317 319 325 335 336 332 331 327 328 331 335 342 344 345 346 347 348 347 346 345 344 344 342 342 342 341 341 342 341 340 339 340 339 335 334 335 334 336 336 335 336 336 336 334 334 334 331 329 327 328 329 331 332 334 335 334 334 334 334 334 334 333 333 333 334 334 333 332 332 333 333 332 332 333 332 331 330 330 330 330 329 329 329
312 312 312 313 313 313 314 316 317 317 316 315 316 316 317 319 327 335 335 335 335 330 330 334 337 342 344 345 346 346 347 346 345 344 344 344 342 342 342 341 341 341 341 340 339 339 339 335 334 335 335 336 336 336 336 336 334 332 333 332 329 329 328 329 331 332 334 335 335 334 334 334 333 334 334 333 334 334 333 332 331 331 332 332 332 332 332 331 331 330 330 329 328 327 326 328 328
312 312 312 313 313 313 314 315 316 316 316 315 316 316 317 319 326 333 337 338 338 334 334 336 338 341 344 345 345 345 346 347 345 344 344 343 342 342 341 341 341 341 341 340 339 339 339 336 335 336 336 337 336 336 336 335 332 329 331 330 329 330 329 330 332 334 335 335 334 334 334 334 333 334 334 334 334 332 332 331 331 332 332 332 332 332 332 331 330 329 329 329 325 322 320 325 327
313 313 313 312 312 313 315 316 316 316 315 315 316 316 316 318 324 332 337 340 339 335 335 338 340 341 343 344 344 344 346 346 344 344 344 343 342 341 341 341 340 340 340 339 339 339 338 336 336 336 336 337 336 336 335 333 329 326 329 330 331 332 330 330 333 334 335 334 335 334 334 334 334 335 334 334 332 331 332 332 332 332 332 332 332 332 331 330 329 328 327 325 320 316 314 320 325
314 314 314 313 312 313 315 316 315 316 315 315 316 316 316 317 321 329 336 339 339 336 337 340 342 341 342 343 343 344 346 345 344 344 343 343 342 342 341 340 340 340 339 339 339 339 338 336 336 336 337 336 336 336 334 332 328 327 330 332 332 333 330 331 334 334 334 334 335 334 334 335 335 334 333 332 331 331 332 332 331 331 331 331 330 329 328 328 327 325 322 318 315 313 311 317 324
314 314 314 313 313 313 315 315 314 315 315 314 316 316 316 317 317 325 335 338 337 337 339 341 341 341 342 343 343 344 345 344 344 343 342 342 342 342 341 341 340 340 339 339 339 339 337 336 336 336 337 336 336 336 333 332 330 329 331 333 333 332 330 332 334 334 334 334 334 334 334 334 334 333 332 331 330 330 331 331 331 330 329 329 328 328 327 326 324 320 316 313 312 312 310 315 322
313 314 313 312 313 313 314 314 314 315 314 314 316 315 316 317 316 323 334 337 336 337 338 340 339 341 343 343 343 344 344 343 343 342 341 341 342 341 341 340 340 340 340 339 339 339 337 336 336 336 335 336 336 335 332 332 332 331 332 333 333 331 330 333 333 333 334 334 333 333 333 332 331 331 330 329 328 329 331 331 330 329 327 328 328 327 325 321 318 315 313 311 311 311 310 311 316
313 313 312 312 313 313 312 313 314 314 314 315 315 315 316 317 317 323 332 335 335 336 338 339 340 341 342 342 343 344 343 342 342 341 341 341 341 341 341 340 340 340 340 339 339 339 338 337 336 335 335 335 336 334 332 332 332 333 333 332 333 332 333 334 333 333 333 333 333 333 331 331 330 329 329 329 330 331 330 329 328 327 327 328 327 324 320 316 314 312 311 310 310 311 309 308 309
312 312 312 312 313 313 312 313 314 314 315 317 318 316 315 316 320 325 331 333 333 337 339 340 340 340 341 341 342 343 343 342 342 342 341 341 341 341 341 340 340 340 340 339 338 338 338 337 336 335 336 334 333 333 332 332 333 333 333 332 333 334 334 334 334 334 333 332 332 331 331 330 329 329 330 330 330 328 328 327 326 326 327 326 322 318 315 313 312 311 310 308 307 308 306 305 304
312 312 313 313 314 313 313 314 315 314 314 316 317 313 312 316 322 324 328 332 333 335 338 339 340 339 340 341 342 342 342 342 342 342 341 341 341 341 340 340 339 339 340 339 337 337 337 337 336 336 336 333 331 332 332 332 332 333 333 332 333 333 333 333 332 333 332 331 331 330 330 330 330 330 329 328 327 326 325 325 325 327 326 322 317 314 312 311 310 309 308 305 303 303 303 302 302
311 312 312 313 314 313 313 315 314 313 312 315 316 312 311 314 320 321 324 330 333 333 335 337 338 339 339 341 342 342 342 342 342 341 341 341 341 341 341 340 339 339 339 339 338 337 337 337 336 336 336 334 332 333 333 333 332 333 333 333 333 333 333 332 331 332 332 330 330 329 329 329 329 328 327 326 325 325 324 324 326 326 321 316 314 312 311 310 308 306 304 302 302 301 301 301 301
311 313 312 312 313 312 314 315 313 312 313 315 316 314 312 312 318 322 323 329 332 331 333 335 338 340 339 340 341 343 343 342 342 341 340 341 341 341 341 340 339 339 339 338 338 338 336 337 337 336 335 335 334 334 334 333 333 333 334 334 334 334 334 333 332 332 331 329 329 328 328 329 328 326 326 325 324 324 325 325 325 321 316 313 311 310 309 308 305 303 302 302 301 301 301 300 300
312 313 312 312 313 313 314 314 313 313 314 316 317 316 312 311 317 324 325 328 330 330 332 334 337 339 338 340 341 342 343 342 342 341 341 341 341 341 341 339 339 338 338 337 338 337 335 336 338 336 335 335 335 335 334 334 333 333 334 335 335 334 334 333 332 332 331 329 328 328 328 327 327 326 326 326 324 324 325 323 319 315 312 311 309 308 307 304 302 302 301 301 301 300 300 300 300
312 312 312 312 313 314 315 315 313 313 315 317 317 316 313 311 315 322 325 326 326 328 331 333 337 338 338 339 340 341 342 342 342 341 341 340 340 341 340 339 338 338 337 336 337 337 336 337 337 337 336 335 335 335 334 334 334 334 334 334 334 334 334 333 332 331 330 328 328 328 327 326 326 326 326 325 324 322 321 318 314 312 310 309 307 305 303 302 301 301 301 301 300 300 300 300 300
312 312 312 312 313 314 315 316 314 314 317 317 316 315 314 312 313 321 326 326 325 327 330 332 336 337 338 339 340 340 340 341 341 341 340 340 340 341 340 339 338 338 337 336 336 337 337 338 338 338 337 335 335 335 334 334 334 334 334 333 334 334 333 332 332 331 330 329 328 328 327 326 326 326 326 325 322 320 317 314 312 310 308 306 304 303 301 301 301 301 300 300 300 300 300 300 300
311 312 312 312 312 313 313 314 315 316 316 315 314 315 316 313 312 318 326 327 325 326 328 331 334 336 338 338 340 340 339 340 341 340 340 340 340 341 340 339 338 337 337 336 336 337 338 338 338 338 337 335 335 335 334 334 334 334 333 333 334 334 333 332 332 331 330 329 328 328 327 325 325 325 326 324 320 317 314 311 309 307 305 304 302 301 301 301 300 300 300 300 300 300 300 299 299
310 311 312 312 312 313 313 313 314 314 314 314 314 314 316 316 315 317 324 327 325 326 328 329 331 335 338 338 339 340 339 339 340 340 339 339 340 341 339 339 338 337 337 336 336 337 338 337 337 337 337 336 335 334 334 334 334 334 334 334 334 333 332 332 331 330 330 329 328 328 326 324 324 324 325 322 318 314 312 309 307 305 303 301 300 300 300 300 300 300 300 300 299 299 299 299 299
310 310 311 312 312 314 315 314 313 313 312 313 314 315 317 318 319 318 322 327 327 326 327 327 327 331 335 338 338 339 339 339 340 340 339 339 340 340 339 338 338 337 337 336 335 337 338 337 337 337 336 335 334 333 333 334 334 334 333 333 333 333 332 331 331 330 329 328 328 327 325 324 323 324 324 321 316 312 309 307 305 302 301 300 300 300 300 299 299 299 299 299 299 299 299 299 299
310 310 311 312 312 314 314 313 313 313 312 313 314 317 317 317 320 321 322 326 327 325 324 325 325 329 334 337 338 338 338 339 340 339 338 339 340 339 339 338 338 338 337 336 335 336 337 337 336 336 335 333 332 331 333 334 334 334 334 333 333 332 331 331 331 329 328 328 327 326 325 324 324 323 322 319 314 310 307 305 303 301 300 299 299 299 299 299 299 299 299 299 299 299 299 299 299
310 311 310 311 313 314 313 314 314 313 313 315 315 316 317 317 321 325 326 325 324 325 325 327 329 333 335 337 337 338 338 338 339 339 338 338 339 339 339 339 338 337 337 335 334 335 336 336 336 335 334 332 331 331 332 333 334 333 334 333 332 332 331 331 329 328 328 328 327 326 324 323 322 320 318 315 311 307 305 303 301 300 299 299 299 299 299 298 298 299 299 299 299 299 298 298 298
310 310 310 311 313 314 313 314 315 314 315 317 316 316 317 318 320 324 325 322 322 325 326 329 332 335 337 337 338 338 338 339 339 338 338 338 338 339 339 339 338 337 337 335 335 336 336 335 336 335 334 333 331 331 331 332 333 333 333 332 332 332 331 330 328 328 328 327 327 325 323 322 320 317 315 311 308 305 303 301 300 299 299 299 298 298 298 298 298 298 298 298 298 298 298 298 298
310 310 311 312 313 314 314 313 313 313 314 315 315 315 315 315 317 322 324 322 322 324 324 327 331 334 336 337 338 338 339 340 339 338 338 338 338 339 339 339 338 337 337 336 335 335 335 335 335 335 335 334 332 331 332 332 333 333 333 332 332 331 331 329 328 328 328 327 325 324 322 321 318 315 312 308 305 303 301 299 299 298 298 298 298 298 298 298 298 298 298 298 298 298 298 298 297
311 311 313 313 312 313 313 313 314 314 314 314 314 315 314 313 315 321 324 322 321 322 322 324 328 332 335 336 336 337 339 340 339 338 338 338 338 339 339 338 338 337 336 336 335 335 335 334 334 334 335 334 333 333 332 332 333 333 332 332 331 331 330 329 328 328 327 325 324 323 321 319 316 312 309 306 303 301 300 299 298 298 298 298 298 298 297 297 298 298 298 298 297 297 297 297 297
311 312 312 313 313 313 313 313 314 313 313 313 313 314 314 314 317 320 322 322 322 323 322 322 325 331 334 334 335 338 339 339 338 338 338 337 338 338 339 338 338 337 336 336 335 335 335 334 333 334 335 334 334 333 333 333 333 332 332 331 331 330 329 328 328 328 326 325 323 322 321 317 313 309 306 304 301 299 299 298 298 298 298 298 297 297 297 297 297 298 297 297 297 297 297 297 297
310 310 311 311 312 313 313 313 312 313 313 313 313 314 314 316 320 320 321 322 322 323 323 323 325 330 333 334 336 339 339 339 338 338 337 337 338 338 338 338 338 337 336 336 335 334 334 333 333 334 335 334 333 333 333 333 333 332 331 331 331 330 328 328 328 327 325 324 323 321 319 315 310 306 304 302 300 299 298 298 298 297 297 297 297 297 297 297 297 297 297 297 296 296 296 297 296
310 310 311 311 312 312 313 312 312 312 313 313 314 313 314 318 321 319 319 320 320 321 322 323 326 329 332 335 338 340 340 339 338 337 336 337 337 338 338 337 337 336 336 336 334 334 334 333 333 334 335 334 333 333 333 333 333 332 331 331 331 329 328 328 328 326 325 324 322 320 318 312 307 304 302 300 299 298 298 298 297 297 297 297 297 297 297 297 296 297 297 296 296 296 296 296 296
Wind_Speed
10 9 10 9 10 11 7 9 5 3 2 3 3 3 6 4 3 4 6 4 2 7 8 4 2 1 0 3 5 6 5 6 8 5 3 1 1 8 18 22 24 23 21 19 17 16 17 17 16 15 14 13 12 11 10 10 10 10 10 9 9 10 10 10 10 10 10 9 8 8 7 7 7 5 4 4 4 5 6 8 8 9 10 11 13 14 14 14 16 15 14 16 16 17 18 18 17
10 8 9 8 7 7 5 9 5 4 4 5 4 3 5 2 4 6 8 7 7 8 6 4 2 3 2 1 2 2 4 6 6 6 2 2 3 10 19 22 23 22 21 19 15 15 15 17 17 16 14 13 12 10 10 10 10 10 9 9 9 9 10 10 10 10 9 9 8 8 7 7 6 5 5 5 6 7 9 10 9 9 11 12 14 15 14 15 16 15 14 16 17 18 18 17 16
8 9 10 8 6 5 3 6 6 5 6 5 4 4 2 3 7 7 8 8 9 8 4 3 2 3 0 3 1 1 3 5 4 5 2 2 5 12 20 22 22 21 21 18 14 13 12 17 18 16 15 14 12 11 10 10 10 9 9 9 9 9 10 10 10 9 9 9 8 8 7 6 6 6 6 5 6 7 9 9 8 10 13 14 15 15 14 14 14 14 14 16 17 17 17 16 16
6 8 9 8 4 3 4 5 4 5 7 4 4 5 3 5 7 7 8 7 7 6 3 1 2 2 4 2 1 1 3 4 3 4 4 5 6 15 22 22 23 20 20 17 13 12 12 17 19 17 16 14 13 11 10 10 10 9 9 9 9 9 10 10 10 10 9 9 9 8 8 7 7 7 6 5 5 6 7 8 8 11 14 14 15 15 14 13 14 14 14 15 16 16 16 16 15
5 6 7 7 4 2 2 4 3 5 4 2 4 6 4 6 6 6 7 7 6 6 5 2 0 3 1 3 2 2 4 3 2 4 5 7 10 18 24 24 23 20 20 17 14 12 12 18 19 17 16 14 13 12 11 11 10 10 10 10 10 10 10 10 10 10 9 9 9 8 7 7 7 6 6 5 5 6 7 8 8 11 13 14 15 15 14 14 14 14 14 15 16 15 15 15 13
5 6 4 4 3 1 2 4 6 6 0 2 3 6 5 6 6 5 5 7 6 5 5 4 2 2 3 3 2 3 2 3 3 3 5 7 13 20 24 24 22 20 20 16 13 11 12 19 19 17 16 14 13 12 11 11 10 10 10 10 10 10 10 10 10 10 9 9 8 8 7 7 8 6 6 6 6 7 7 8 8 10 14 15 15 15 15 14 15 14 14 15 14 14 13 13 12
5 6 3 3 3 3 6 6 9 8 3 2 3 6 5 6 5 4 5 5 5 5 4 4 2 3 3 4 4 4 3 6 4 4 8 9 15 21 23 24 22 20 19 16 13 11 13 18 18 17 16 15 14 12 11 11 10 10 10 10 10 10 10 10 9 9 8 8 8 8 7 7 8 7 7 6 6 7 7 8 9 10 13 15 15 15 15 15 15 15 15 14 13 12 11 11 10
5 6 3 5 4 4 7 7 8 6 4 3 4 4 4 6 4 4 6 5 5 5 4 3 3 5 3 4 2 5 3 7 4 7 9 10 16 20 23 23 21 19 17 15 13 12 15 17 18 17 17 15 14 12 11 11 10 10 10 10 10 10 9 9 9 9 8 8 8 8 8 8 8 8 8 7 7 7 7 8 9 10 12 13 14 14 14 14 14 14 14 12 11 10 9 8 8
4 5 4 5 6 5 7 8 9 6 4 4 5 2 3 3 3 4 5 5 6 6 6 5 3 4 4 5 4 7 3 5 6 8 10 12 17 21 23 22 19 18 17 15 13 12 15 17 18 18 17 15 14 12 11 11 11 10 10 10 10 10 9 9 8 8 8 7 8 8 8 8 9 9 8 8 9 8 8 8 9 10 11 12 13 13 13 13 13 13 12 10 9 8 7 6 6
6 6 4 5 7 7 8 9 9 7 5 3 5 2 1 1 1 4 5 5 6 7 6 4 2 2 2 4 5 5 3 5 7 10 12 14 19 21 22 20 18 17 16 15 13 12 14 18 19 18 18 15 14 13 12 12 10 10 10 10 10 10 9 9 8 8 8 8 8 8 8 9 9 9 9 9 9 9 8 8 9 9 11 11 12 11 11 11 11 11 10 9 8 6 5 4 3
8 7 5 6 8 9 9 8 10 7 6 3 3 3 2 3 2 4 5 5 6 7 4 2 2 1 2 3 5 3 6 8 9 11 14 17 20 21 20 19 18 17 15 15 13 12 13 17 19 18 18 16 14 13 12 11 10 10 10 11 10 10 9 8 7 7 8 8 8 8 8 8 9 9 9 10 9 9 9 8 8 8 9 10 10 10 10 9 9 8 8 7 6 5 4 3 2
8 6 6 8 8 9 11 10 12 9 6 4 3 4 4 2 4 4 5 6 6 5 4 4 2 1 3 3 4 5 9 9 10 13 17 18 20 20 19 18 17 17 15 13 12 12 12 16 18 16 15 15 14 13 12 10 10 10 11 11 10 10 9 8 8 8 8 8 8 8 8 8 9 9 9 10 10 10 9 9 8 8 8 8 9 8 8 7 7 6 5 5 4 4 3 2 0
10 6 6 8 8 9 11 11 10 8 5 3 4 4 2 1 2 4 5 5 5 5 4 4 2 2 2 2 4 7 11 11 11 15 19 19 20 20 19 18 17 16 14 12 13 12 12 15 15 13 13 12 13 12 11 10 10 11 11 11 10 10 9 8 8 8 8 8 8 8 8 8 8 9 9 10 10 10 10 9 9 8 8 8 8 7 7 6 6 5 4 4 3 3 2 1 1
11 8 7 7 9 9 9 10 8 9 6 5 6 4 2 2 0 2 4 3 3 5 4 2 1 3 2 2 5 9 12 13 13 17 20 19 20 20 19 19 17 15 12 12 12 12 12 14 14 13 13 11 11 11 10 10 11 11 12 11 10 9 9 9 9 8 8 8 8 8 8 8 8 8 8 9 10 10 10 10 10 9 8 7 7 7 7 6 5 5 4 3 3 3 3 3 3
13 10 8 7 9 9 9 10 8 9 5 7 7 4 2 2 1 2 2 4 2 1 1 1 2 3 2 2 3 10 15 15 15 18 20 19 20 20 20 18 15 12 11 12 12 12 12 14 14 13 12 12 12 11 10 11 11 12 11 10 9 9 9 10 9 9 9 8 9 8 8 8 8 8 8 9 9 9 9 9 9 9 9 7 7 6 6 5 4 4 3 3 3 4 4 5 5
13 9 7 8 10 10 10 10 9 9 4 7 8 6 3 4 3 4 1 2 1 4 1 2 3 2 1 4 1 10 17 16 16 17 16 16 17 17 16 14 11 11 11 12 12 13 14 14 13 11 10 11 11 11 11 11 12 12 10 10 9 10 10 10 10 10 9 9 9 8 8 8 8 7 7 8 8 7 7 7 8 8 8 7 6 5 4 4 3 3 3 3 3 4 5 6 6
13 11 9 9 11 12 10 11 10 7 5 7 8 8 5 6 5 3 3 3 3 5 3 3 4 4 3 3 4 10 14 16 18 16 15 14 14 15 13 12 11 11 11 12 12 13 14 14 13 12 12 12 11 11 11 11 12 11 10 9 9 10 11 11 11 10 9 9 8 8 8 8 8 7 6 6 7 6 6 6 6 6 6 5 5 4 3 3 2 2 3 3 3 4 5 6 7
13 9 10 11 11 12 11 11 10 6 5 5 7 8 8 6 8 6 5 5 4 5 5 5 4 5 5 3 7 10 12 18 19 17 17 16 16 16 15 14 14 13 12 12 12 13 13 13 13 13 13 13 13 12 11 12 11 10 9 9 10 10 11 12 11 10 9 9 8 7 7 8 7 6 5 4 5 5 5 5 5 5 5 5 4 4 3 2 2 1 1 2 2 3 3 4 5
15 9 10 13 12 13 14 12 11 8 6 6 7 8 8 6 8 8 6 6 7 7 6 7 6 6 6 7 9 10 13 19 20 19 20 19 18 17 16 16 16 15 14 14 14 14 13 12 13 14 14 15 15 14 12 10 10 9 8 9 10 11 12 11 10 9 9 8 7 6 5 6 5 4 2 2 3 4 4 4 5 5 5 6 6 5 4 4 3 2 1 1 1 2 3 2 2
18 14 11 13 14 16 16 15 14 11 8 9 9 8 8 7 7 8 7 7 8 8 5 7 7 8 9 10 12 13 16 20 20 20 20 19 17 16 16 17 18 16 15 15 14 14 13 13 13 14 14 15 15 14 12 10 10 10 8 9 9 11 12 9 9 9 8 8 7 6 5 4 4 3 2 2 2 2 3 3 4 4 5 5 5 5 4 3 3 3 3 3 3 3 2 1 0
17 17 13 13 17 17 15 17 16 13 11 13 11 8 9 8 8 9 8 7 9 10 7 5 6 7 11 12 15 17 18 21 22 21 20 19 16 16 16 16 17 16 15 14 13 14 14 14 14 14 15 16 15 14 12 10 11 10 9 9 8 10 11 9 8 8 8 8 7 6 5 4 3 3 2 2 1 1 1 1 2 3 3 3 4 4 2 3 3 3 3 3 2 2 1 1 1
15 17 19 19 20 16 16 18 17 16 14 15 14 10 10 8 9 11 11 10 7 5 6 5 6 6 11 11 14 18 20 22 23 22 22 20 17 17 16 16 17 17 16 15 13 13 14 14 15 15 17 17 15 13 12 11 11 9 8 10 8 9 10 8 8 7 7 7 5 4 4 3 3 2 2 2 1 2 2 1 2 2 2 2 4 3 2 2 3 2 2 2 2 2 2 2 3
14 15 20 25 24 17 17 20 17 18 17 16 16 13 12 11 11 12 14 14 5 1 3 5 7 7 11 12 15 19 21 23 24 23 21 18 17 17 15 16 19 18 17 14 12 12 14 15 16 17 17 17 15 13 12 11 11 9 9 10 9 9 9 8 8 7 7 6 4 4 3 3 2 2 2 2 2 2 2 2 2 2 3 2 3 3 2 2 2 2 2 3 3 2 2 3 3
17 15 19 24 24 21 20 20 18 19 20 19 17 13 14 15 13 11 14 14 7 4 5 7 7 8 13 14 16 19 20 23 23 20 17 15 16 16 14 14 18 19 16 13 12 13 15 16 17 17 16 17 15 13 12 10 10 9 9 10 9 9 9 8 8 7 7 6 5 4 3 3 2 3 3 2 2 2 2 3 3 2 3 2 2 2 2 2 2 3 3 2 2 2 2 3 3
19 18 19 21 23 23 22 20 19 20 20 18 16 14 17 18 13 11 14 13 9 8 7 8 9 10 15 16 18 19 20 22 20 16 13 13 15 16 14 13 17 18 14 13 13 13 15 17 17 17 16 17 15 13 12 11 10 9 10 11 9 10 10 9 8 7 6 6 5 5 4 4 3 3 3 3 3 3 3 3 3 3 2 2 1 2 1 2 2 2 2 2 2 3 3 3 4
18 22 21 17 19 22 22 22 20 20 19 16 15 16 18 17 11 12 15 12 8 9 9 10 11 13 15 16 18 19 21 22 18 14 13 13 14 16 15 13 16 17 13 13 13 13 15 17 17 17 16 16 13 12 12 11 11 10 10 11 10 10 10 9 8 7 6 6 6 5 5 5 5 4 4 4 4 3 3 3 3 3 2 2 1 1 1 1 1 2 2 2 2 3 3 4 4
15 23 24 17 16 20 21 23 20 19 17 17 17 16 17 17 12 11 13 12 10 11 11 12 13 14 15 16 18 19 21 20 16 14 14 15 15 16 16 14 17 18 14 14 14 14 16 17 17 16 16 15 13 12 12 11 11 10 10 10 11 11 10 9 8 7 8 7 6 6 6 6 7 6 6 5 5 4 4 3 3 3 2 1 1 1 1 1 0 1 1 2 2 3 3 4 4
11 18 21 16 14 16 20 22 21 18 14 17 18 15 17 17 15 15 13 15 16 14 13 14 14 14 14 15 17 18 19 17 15 15 16 17 16 15 16 16 19 18 15 15 14 14 16 16 15 15 15 14 13 12 11 11 10 10 10 10 10 9 9 10 9 8 8 7 7 7 7 7 7 8 7 6 5 5 4 3 3 2 1 1 1 2 2 2 2 2 3 3 3 4 5 5 5
9 14 16 15 13 14 20 21 21 19 13 16 16 13 17 16 17 19 15 17 17 15 14 15 15 14 14 15 17 17 16 15 16 17 16 16 16 15 16 16 17 15 13 14 14 15 16 16 15 14 15 14 13 12 11 12 10 10 10 10 9 9 9 10 9 9 9 7 7 7 7 7 7 7 6 5 5 5 4 3 2 2 1 1 1 2 2 2 3 4 4 4 5 5 6 5 5
10 13 12 12 13 14 21 22 21 21 15 17 15 11 15 16 20 21 18 20 19 16 15 15 14 14 14 15 16 16 15 15 16 16 15 16 17 17 16 16 16 14 13 13 14 16 15 15 14 14 15 14 14 12 11 12 11 10 10 10 9 10 10 10 10 10 8 7 7 8 7 7 6 6 5 5 4 4 4 3 2 2 1 1 2 2 2 2 3 4 4 4 5 6 5 4 4
11 12 11 11 11 13 21 23 21 20 16 20 17 13 15 17 22 23 23 23 21 18 17 16 15 14 14 16 16 16 15 15 15 15 14 15 18 19 16 15 16 15 15 16 15 15 15 14 14 14 16 15 14 14 12 12 11 10 10 10 10 11 11 10 10 9 8 8 8 7 6 5 5 5 4 5 4 4 3 3 2 2 1 1 2 2 1 2 3 3 4 5 5 4 4 4 3
11 11 11 12 13 13 19 24 24 21 17 22 19 13 14 17 15 22 23 23 21 19 19 18 17 16 16 16 16 15 14 14 14 14 15 17 19 19 15 15 16 15 17 18 15 15 15 15 14 15 16 15 14 14 13 12 11 11 11 10 10 11 10 10 10 9 8 9 8 6 5 4 4 3 4 4 4 3 3 3 3 2 2 2 1 2 1 2 2 3 4 5 4 4 4 3 2
11 12 13 15 16 13 15 21 28 25 17 20 22 14 12 13 12 21 21 21 22 20 19 20 20 19 17 16 15 14 14 14 15 16 18 20 19 15 14 16 17 16 17 18 15 15 15 15 15 16 16 15 15 15 15 14 13 13 12 11 11 10 10 10 10 10 9 9 7 6 5 4 4 4 3 4 3 3 3 3 3 2 2 2 1 1 1 2 2 3 4 5 5 3 3 2 1
11 14 14 16 20 17 13 16 24 27 19 18 23 19 15 11 13 19 20 21 21 19 20 21 20 19 17 15 14 14 15 15 16 17 19 19 17 15 14 16 16 16 16 16 15 15 15 16 16 16 16 16 16 17 17 15 14 14 12 11 11 11 11 12 11 9 8 8 7 7 6 5 4 4 4 4 4 3 3 4 3 1 1 0 0 1 1 1 2 3 3 4 5 4 1 2 0
16 16 14 15 19 18 17 13 17 25 21 18 20 19 20 13 12 18 20 21 21 21 20 20 20 18 16 15 15 15 16 16 16 17 18 18 16 15 15 15 15 15 14 15 15 15 16 17 17 16 17 18 19 18 17 15 14 14 13 12 12 12 13 13 11 9 8 8 7 7 7 5 4 4 4 4 4 4 4 3 2 0 1 1 1 1 1 2 4 4 4 4 4 4 2 2 2
21 19 15 14 14 15 17 13 15 23 20 18 20 18 20 17 14 17 19 21 21 21 20 17 18 18 17 16 16 16 16 15 16 16 18 18 16 15 15 15 15 15 13 14 16 16 18 19 18 18 18 19 20 19 17 16 15 15 14 14 14 13 14 13 11 10 9 8 7 6 6 6 5 5 5 5 5 4 3 2 1 1 1 0 1 1 1 3 4 4 4 3 3 2 1 2 4
16 18 16 17 15 12 15 13 15 21 17 16 21 19 20 20 17 16 20 21 19 19 19 18 19 19 18 18 17 17 16 15 15 16 17 17 17 15 15 15 15 14 14 14 16 16 18 20 19 20 19 19 21 19 17 16 15 16 16 15 14 13 14 14 11 9 9 9 9 8 7 6 6 5 4 4 4 3 2 2 2 2 1 1 2 3 3 4 4 3 3 2 1 2 2 3 5
13 15 13 15 15 11 13 13 14 19 15 13 19 20 20 20 18 17 19 18 18 20 21 20 21 19 17 17 17 17 15 15 16 15 16 16 17 16 15 15 15 14 14 15 16 16 18 21 22 23 20 18 19 18 17 15 14 15 15 15 15 14 14 13 11 10 9 10 11 10 9 8 7 6 5 5 4 4 3 2 2 3 3 3 4 3 4 3 3 3 4 3 3 4 3 4 5
12 11 10 11 12 10 11 13 14 15 11 11 17 18 17 19 17 16 19 18 18 21 21 20 20 18 17 17 17 16 17 18 18 16 15 15 16 17 16 15 15 13 13 15 16 17 20 23 25 25 20 18 17 17 18 16 13 14 15 15 15 14 13 12 12 12 11 10 10 8 7 8 8 7 6 5 5 3 2 2 4 4 4 4 4 3 3 2 2 4 5 4 5 5 4 3 5
11 10 10 10 12 12 10 12 15 14 10 10 14 13 12 14 14 14 18 19 18 18 19 18 18 18 18 17 15 15 19 20 19 18 15 14 15 16 17 15 15 13 13 16 17 18 23 26 27 23 19 18 18 19 20 17 16 18 17 15 14 13 13 13 13 12 11 10 10 7 6 6 6 5 4 3 2 2 4 5 5 5 4 4 3 1 1 2 4 5 5 5 6 5 4 3 4
11 11 11 10 13 15 10 11 14 12 10 8 8 9 9 12 14 13 14 17 17 16 18 18 18 18 17 16 15 15 19 20 20 20 17 15 15 15 16 15 15 14 14 18 19 20 24 27 26 21 18 19 19 21 22 20 20 21 17 14 13 13 14 14 13 12 10 9 9 7 7 6 4 3 2 2 3 5 5 6 5 5 3 2 0 2 3 4 5 5 5 5 6 6 5 4 4
10 11 12 10 13 16 13 13 14 9 9 11 11 9 9 13 17 15 13 14 16 16 17 18 19 19 17 16 17 18 20 20 21 21 19 17 15 15 15 14 15 15 16 19 20 20 22 25 26 22 22 23 21 22 23 22 22 20 16 14 13 14 15 14 12 11 10 8 8 7 7 6 3 1 2 4 5 6 6 5 4 3 2 2 3 4 5 5 6 5 5 5 6 7 7 6 6
9 11 12 9 9 14 14 15 13 8 8 13 16 12 9 11 16 18 16 15 17 16 15 18 19 19 18 18 19 20 21 21 21 21 20 19 17 17 16 15 16 16 18 19 19 20 20 22 25 23 22 24 24 23 22 22 21 18 16 15 13 14 15 14 13 11 9 8 8 8 6 4 2 2 3 4 4 5 4 2 1 2 4 5 6 6 6 6 6 5 5 6 7 8 9 9 10
7 11 15 13 11 13 15 14 11 8 8 11 16 15 11 10 13 17 19 17 18 18 16 17 18 19 19 20 20 21 21 21 22 22 21 21 19 18 17 17 16 16 18 20 20 20 19 21 23 21 22 25 26 25 21 20 20 18 17 16 14 13 12 14 14 11 9 8 9 7 5 3 1 2 3 3 4 3 1 1 3 5 6 7 7 7 7 7 6 6 6 7 9 9 10 11 12
7 11 14 14 13 13 14 12 10 10 9 9 14 16 11 10 10 14 19 20 19 21 20 17 18 20 22 23 22 21 20 21 22 22 21 21 19 18 17 17 17 16 18 19 19 19 19 21 21 20 24 25 24 25 21 19 18 17 16 15 15 14 13 14 14 11 9 9 7 5 3 2 1 1 3 3 2 1 2 4 6 7 8 8 9 8 7 7 7 7 8 9 10 11 11 11 12
8 12 13 11 11 11 11 10 9 10 9 10 15 17 12 10 10 11 15 19 19 18 17 16 20 24 25 24 22 22 21 21 22 22 21 20 18 17 17 16 16 17 17 17 17 18 19 20 20 21 24 22 22 23 21 18 16 15 15 15 14 14 14 15 14 11 10 8 5 4 3 2 0 2 3 3 1 1 5 7 8 9 9 9 9 8 8 8 9 9 10 11 11 11 11 11 11
11 13 12 10 9 8 8 8 8 9 9 14 18 19 15 11 10 12 13 15 16 15 14 16 21 25 26 24 23 23 23 22 23 23 22 19 17 17 17 17 17 17 17 16 16 19 19 19 20 20 20 21 22 21 19 16 15 15 15 14 13 13 15 15 13 11 9 6 4 3 3 2 0 2 2 2 1 3 7 8 9 9 9 9 9 9 9 10 11 11 11 12 11 11 11 11 11
11 11 10 10 9 7 7 6 7 8 10 14 18 19 17 13 10 12 14 15 16 15 16 18 20 23 26 24 24 24 24 23 23 23 23 20 18 18 19 19 19 18 20 19 18 20 19 19 21 21 19 19 19 19 18 16 16 16 16 14 12 13 15 13 9 8 6 5 4 4 3 2 1 1 2 2 1 5 8 9 10 10 9 10 9 9 11 11 12 12 12 12 12 11 11 11 11
12 12 11 10 9 8 8 9 8 10 8 7 14 19 16 13 11 12 12 14 17 16 16 19 22 24 25 25 24 24 24 25 24 24 24 21 19 21 22 22 21 22 24 22 20 21 21 21 23 22 20 18 17 18 17 16 17 17 16 15 13 15 16 11 7 6 6 5 5 4 3 3 1 1 2 1 3 7 9 10 10 10 10 10 10 11 12 13 13 12 12 12 12 12 11 11 10
14 14 12 11 10 9 10 10 9 11 6 3 9 14 11 11 12 14 12 11 16 20 20 21 24 25 25 25 25 24 24 25 24 24 25 22 21 23 24 24 24 25 27 24 21 23 23 23 24 22 20 20 20 19 17 16 18 17 16 16 15 16 15 10 8 7 6 5 5 4 4 3 2 3 4 3 6 9 11 11 11 10 10 11 11 12 13 14 13 13 13 12 12 12 11 11 10
15 14 13 11 9 9 9 9 9 11 8 7 9 10 9 8 5 8 12 12 15 18 20 20 20 21 22 22 24 24 24 25 24 25 25 24 24 25 25 25 24 26 27 25 23 24 24 23 25 24 22 23 22 20 19 17 18 17 16 17 16 15 13 10 9 8 7 6 6 5 5 6 6 7 6 5 8 11 12 12 11 11 11 12 13 14 14 14 13 13 13 12 12 11 11 10 10
12 12 13 12 9 8 5 3 3 5 6 8 8 7 6 3 3 1 8 13 15 16 17 18 16 15 17 20 23 24 24 24 25 26 27 26 25 25 27 27 26 25 25 25 24 24 25 25 27 27 24 22 22 20 19 18 17 18 17 17 17 15 13 12 10 9 8 7 6 5 6 8 9 7 5 9 11 13 12 12 12 12 12 13 14 14 14 14 13 12 12 12 12 11 10 10 10
9 11 12 12 12 9 5 2 3 0 5 7 8 9 6 3 2 6 10 13 14 14 15 16 16 15 16 19 22 24 24 25 26 28 28 28 27 26 29 29 28 26 24 24 24 24 25 26 28 28 24 21 22 20 19 18 18 18 18 19 17 15 15 13 11 10 9 7 6 7 8 9 8 5 9 13 14 14 13 12 12 12 13 14 15 15 15 14 13 12 12 11 11 10 10 10 10
9 11 11 11 10 9 6 6 4 5 8 6 8 12 10 7 5 8 12 14 15 15 15 15 16 17 17 18 21 23 24 24 26 27 27 28 28 28 30 29 28 28 24 23 24 24 24 26 28 28 26 25 24 21 20 20 19 19 20 19 18 16 16 14 12 10 9 6 6 7 8 9 5 8 13 14 15 14 14 13 13 13 14 15 15 15 15 14 12 12 12 11 11 10 10 10 10
8 9 10 9 8 8 8 7 7 9 9 6 9 12 10 9 7 8 12 14 15 16 16 16 16 17 17 19 20 21 22 23 25 26 26 28 30 29 31 30 28 28 25 23 25 24 25 27 28 27 27 26 25 22 22 22 20 20 20 19 18 18 16 14 13 11 9 7 6 7 8 7 6 13 14 14 15 14 14 14 13 14 15 15 15 15 15 14 12 11 11 11 11 10 10 10 10
7 8 10 9 7 8 9 7 6 8 8 7 9 9 8 9 7 8 11 13 14 15 16 16 16 18 20 21 20 21 23 24 25 26 26 29 31 29 31 32 29 28 26 24 24 25 26 27 26 25 24 24 24 22 22 24 21 20 21 20 20 18 15 15 13 11 9 7 7 8 8 5 12 16 15 15 15 14 14 14 14 14 15 15 15 15 15 13 12 11 11 11 11 10 9 9 10
8 9 10 10 8 7 8 9 7 7 7 7 7 8 6 6 7 9 10 11 13 14 14 14 16 21 24 21 20 22 24 24 25 26 26 29 30 28 30 32 28 27 26 24 24 25 26 26 26 25 23 23 25 23 23 25 23 22 21 22 21 18 16 16 14 12 10 8 8 9 6 8 16 17 15 16 15 14 14 14 14 14 15 15 15 15 14 13 12 11 11 11 11 10 9 9 9
11 9 10 10 10 9 9 10 10 8 7 6 6 8 5 4 6 9 11 10 11 13 15 15 18 23 22 19 18 21 22 23 25 25 25 29 30 27 29 32 30 29 28 25 25 24 24 26 28 26 23 24 27 26 24 25 24 21 21 22 21 17 16 17 15 12 10 8 8 8 6 13 18 17 16 16 15 15 14 14 15 15 15 15 15 15 14 13 11 10 11 11 11 10 8 8 9
Wind_Direction
350 7 5 353 356 350 343 329 270 187 227 153 112 132 82 48 29 51 74 71 91 45 13 354 31 79 349 355 26 37 18 4 4 9 45 48 170 152 170 174 170 175 177 179 185 178 176 176 176 181 183 184 178 168 163 162 156 149 146 145 148 148 149 148 147 144 141 141 137 131 125 114 105 98 89 64 62 65 63 70 72 81 93 102 108 110 112 113 113 116 122 128 130 128 128 130 129
343 356 6 350 350 344 341 324 280 180 204 164 108 88 91 97 64 48 46 37 31 26 8 22 82 107 70 48 51 44 56 41 22 44 59 244 124 149 167 169 170 172 175 178 176 170 172 176 179 181 183 185 178 169 166 164 156 150 145 143 145 147 148 148 146 144 142 141 139 134 124 116 109 96 81 67 77 81 79 81 79 86 94 98 105 110 113 115 120 126 128 131 132 132 132 131 128
344 349 354 353 1 340 310 299 274 215 219 186 121 106 118 92 65 46 39 32 28 20 22 66 124 104 341 221 156 0 62 56 48 65 59 110 131 163 164 165 170 172 175 177 169 161 168 177 179 182 185 185 178 173 169 167 160 152 149 148 147 148 149 148 146 143 141 138 137 132 124 119 108 96 90 80 78 81 89 91 85 92 97 98 103 107 111 117 122 126 127 132 133 132 134 131 128
345 347 348 349 336 301 264 252 278 256 229 196 135 125 114 76 63 47 43 31 30 22 22 43 153 81 299 278 62 303 70 70 68 56 81 123 170 173 162 166 171 170 175 175 164 156 171 178 179 184 186 185 180 174 170 167 162 157 153 152 151 152 152 148 145 141 138 135 134 130 123 116 110 107 103 92 81 86 97 97 92 101 105 107 113 114 114 117 120 123 126 131 131 130 132 131 129
342 340 349 348 301 262 271 257 274 259 242 221 153 127 106 80 60 43 47 39 39 28 21 318 73 99 285 34 18 318 65 81 67 61 114 164 190 172 165 170 170 171 174 173 160 155 178 179 179 186 185 184 180 175 173 171 166 163 157 155 155 154 150 146 144 142 138 135 133 129 123 115 111 109 102 94 95 101 105 102 99 107 113 117 121 124 123 124 124 124 127 130 129 129 130 130 129
332 317 333 337 283 196 235 245 246 233 1 333 147 106 87 80 57 29 48 60 55 36 26 339 337 146 148 94 79 43 80 111 55 84 145 188 183 171 172 171 169 175 176 174 160 156 182 180 180 185 185 183 178 176 177 176 171 166 160 158 157 151 145 143 142 141 139 137 133 129 122 114 109 102 95 94 105 113 113 108 106 111 118 122 123 126 127 127 128 129 130 131 129 131 131 130 128
311 292 265 247 217 209 240 234 241 221 108 41 94 81 61 60 46 20 38 65 62 48 24 358 315 234 141 130 120 78 164 129 84 182 175 190 175 171 174 169 172 177 178 176 157 159 181 179 181 183 185 182 176 179 180 178 171 168 165 159 155 149 144 143 142 143 142 140 138 131 121 114 109 101 97 101 112 121 120 112 110 114 118 123 127 129 130 131 132 131 131 131 131 132 130 129 126
297 291 273 252 221 216 245 233 235 216 128 108 89 62 49 42 24 22 27 45 37 33 17 9 270 260 127 157 147 83 150 139 149 183 176 187 170 169 171 169 174 175 181 176 159 172 183 177 180 182 185 181 178 183 180 176 170 167 163 159 157 152 149 148 150 151 149 146 139 130 120 111 106 102 103 109 119 126 126 116 112 116 116 119 126 130 131 131 130 130 132 133 132 130 127 125 122
267 273 260 250 236 225 240 234 224 198 153 141 116 81 58 42 7 22 22 41 23 11 19 12 287 275 132 162 122 95 126 150 157 161 172 182 166 167 169 169 173 177 184 177 165 177 184 178 180 184 183 180 181 182 177 176 173 167 162 160 160 156 155 157 161 157 153 148 137 128 118 110 107 106 108 115 123 129 129 122 116 119 121 119 121 124 125 128 129 132 134 134 130 126 123 119 114
238 242 247 238 236 228 234 235 225 196 150 139 125 104 73 98 11 31 18 27 18 4 24 14 283 274 149 155 113 119 178 158 150 158 172 176 167 167 169 170 174 181 187 184 170 167 181 180 181 185 183 182 183 181 179 181 177 166 161 160 160 160 162 165 167 159 153 146 137 128 117 111 109 108 109 115 124 130 132 127 120 120 125 125 124 124 125 130 133 136 136 132 130 127 121 114 101
235 226 236 238 233 229 233 233 230 203 143 164 129 106 165 137 30 45 22 7 19 4 20 359 267 160 206 150 100 176 202 161 152 166 172 173 169 168 171 173 177 185 191 193 173 161 177 180 183 184 183 183 183 184 185 188 178 163 159 160 162 162 165 168 168 159 151 144 137 128 117 111 109 108 108 114 121 128 132 131 125 120 122 128 131 131 132 135 137 139 138 136 136 133 130 120 87
239 217 219 233 232 232 232 232 234 212 159 195 127 116 168 133 0 29 15 356 11 357 21 355 325 120 212 148 112 188 192 165 158 171 175 173 171 170 175 178 182 188 193 190 168 162 171 176 180 178 184 185 182 186 188 188 174 163 161 162 163 164 168 168 166 158 149 143 137 129 120 113 109 109 108 113 120 125 133 135 132 126 124 127 132 137 139 142 145 148 150 149 151 151 154 145 100
236 226 226 237 234 239 235 234 236 223 195 175 126 131 123 59 333 10 356 345 359 350 22 1 318 194 221 113 144 190 190 177 165 173 176 173 174 176 179 184 188 191 191 175 161 167 169 170 169 172 191 188 183 189 187 182 169 166 167 165 165 166 169 164 163 156 147 143 137 132 124 116 112 111 111 114 120 126 133 138 139 136 133 131 135 142 148 154 160 164 170 172 182 186 206 241 279
230 232 236 242 233 239 241 236 229 229 215 130 125 145 82 70 282 344 316 305 5 0 4 0 237 220 211 162 183 186 194 192 171 171 176 175 178 181 184 190 193 191 180 164 163 171 170 166 161 176 192 180 182 191 185 179 171 171 170 167 166 167 167 161 162 154 146 143 136 133 126 119 114 113 112 115 122 130 136 141 143 144 143 142 142 146 154 163 171 178 190 202 225 244 262 281 290
223 231 236 245 235 230 233 234 225 228 205 121 131 138 112 110 164 226 274 320 26 46 311 139 189 254 204 223 194 177 199 201 178 170 174 179 183 187 190 193 192 180 165 165 171 170 169 167 164 180 189 178 187 190 185 185 177 174 172 168 167 165 165 161 161 154 147 144 139 136 130 123 116 114 113 116 124 132 140 145 147 148 149 150 151 153 158 165 176 189 208 227 251 274 283 291 293
215 229 234 239 235 226 221 221 224 226 177 110 133 148 167 149 176 214 185 316 124 151 218 128 195 255 306 309 65 175 207 205 182 171 172 177 182 188 189 187 178 169 169 173 175 172 172 171 169 178 185 185 194 190 186 191 182 175 173 168 168 165 163 162 161 155 151 148 142 138 131 124 115 114 114 117 123 132 142 148 150 152 153 156 157 160 164 172 187 201 225 247 265 280 286 290 290
204 223 234 233 231 227 220 212 215 217 154 118 147 175 207 162 167 209 164 220 180 151 171 151 205 223 259 309 139 186 216 204 186 175 174 176 177 181 180 175 172 174 178 177 179 178 173 170 173 182 184 185 190 187 186 196 186 173 172 168 168 166 161 161 160 155 153 151 143 138 130 122 118 114 110 114 121 127 135 142 149 152 154 158 160 165 168 176 196 218 241 256 270 277 284 289 292
200 218 230 229 230 227 223 214 209 202 159 156 177 197 228 185 167 183 185 198 177 168 169 161 191 205 224 195 172 207 216 201 191 180 179 180 179 180 179 178 177 180 180 182 184 179 174 171 176 185 185 183 185 184 189 199 186 167 167 169 168 166 163 162 161 157 153 152 146 141 131 124 115 100 96 105 117 119 124 128 129 134 137 138 135 134 134 133 144 174 228 255 272 287 303 307 306
209 220 228 229 230 228 225 216 204 197 184 191 205 214 238 214 170 185 213 206 189 198 180 172 180 174 192 187 191 211 207 203 197 185 184 184 181 181 182 181 182 183 181 183 183 177 175 175 180 184 184 186 186 184 188 193 177 160 160 167 170 168 164 162 161 157 154 154 150 142 130 122 110 97 114 120 105 99 100 106 107 114 115 113 113 108 106 106 104 96 91 72 13 11 8 5 309
216 221 230 229 227 233 222 211 207 204 205 218 220 208 229 230 182 194 226 220 214 233 213 192 201 181 179 181 188 200 203 206 202 191 189 188 184 185 186 183 182 182 179 180 180 178 175 178 187 186 185 188 187 185 182 179 169 161 163 164 167 170 165 163 162 160 161 161 153 143 131 123 119 127 166 116 86 77 78 86 94 100 102 104 103 93 84 77 70 56 48 44 43 45 38 36 275
215 220 234 229 225 234 216 209 217 212 211 229 229 202 224 226 193 207 220 218 228 241 231 233 250 196 182 185 188 196 203 207 206 197 192 191 188 190 189 183 182 178 175 176 179 184 178 181 192 189 188 188 187 183 175 177 172 164 169 164 162 172 169 166 166 166 166 160 150 142 137 137 137 141 148 129 104 108 102 88 92 97 103 100 91 87 79 62 64 60 45 41 45 34 13 338 316
220 224 234 233 231 234 216 216 223 216 214 229 231 218 229 214 195 215 219 231 248 237 217 246 276 215 198 209 203 203 206 207 209 204 196 193 192 192 187 184 189 181 176 175 176 186 182 183 193 192 192 188 186 181 173 180 174 164 174 168 164 176 174 169 168 171 164 152 149 145 145 150 148 157 166 174 166 142 143 134 126 122 128 113 96 98 98 80 77 80 58 39 28 0 354 352 341
223 225 227 233 236 232 222 224 221 215 216 221 228 229 228 218 217 220 222 238 249 167 212 250 267 226 209 217 215 213 212 212 214 209 200 193 193 194 189 188 197 192 183 179 175 185 187 188 195 195 192 185 183 180 174 178 172 167 179 172 169 177 175 170 171 172 163 156 168 166 162 169 172 186 183 185 166 145 154 149 146 135 131 126 108 100 68 61 60 44 28 16 12 4 0 16 9
221 229 221 226 229 225 229 231 218 214 220 223 225 223 220 228 233 214 221 236 219 203 231 246 253 218 203 205 216 223 220 219 216 209 200 195 197 198 193 190 200 197 185 180 180 188 190 191 197 195 188 182 181 178 171 174 172 172 182 174 173 179 172 174 180 173 165 171 182 175 176 184 195 205 194 193 181 165 168 159 154 142 130 119 102 94 55 32 32 14 7 9 5 12 3 11 16
218 231 228 223 221 222 229 230 221 217 223 225 218 216 222 233 238 220 225 225 202 216 234 237 233 204 200 204 218 225 219 217 211 201 197 196 200 201 197 194 200 197 183 179 184 190 191 191 197 193 186 183 181 176 170 175 179 177 178 174 177 181 175 181 186 172 173 187 187 178 186 197 203 209 203 200 193 180 176 165 156 151 142 130 101 86 63 22 22 3 7 15 10 24 11 0 5
216 224 230 226 214 217 224 224 223 220 217 214 210 219 227 227 231 236 228 211 193 218 231 226 211 198 201 206 218 226 221 215 204 196 196 195 199 200 197 194 196 192 186 185 184 191 195 192 195 192 185 181 179 176 170 175 184 178 175 178 180 182 181 184 181 175 185 192 188 187 195 204 205 206 206 200 189 178 171 166 161 157 159 151 113 83 51 27 26 354 358 14 23 36 13 3 12
218 219 223 225 216 213 219 221 220 219 213 209 214 224 226 217 221 233 213 198 210 221 221 213 201 200 204 207 216 224 222 215 202 197 197 196 199 199 194 194 196 192 190 191 185 192 196 192 193 191 183 179 178 176 172 177 185 179 177 184 183 183 185 179 177 185 191 192 193 196 201 208 209 204 202 199 187 174 166 169 171 165 168 162 117 79 42 28 353 332 0 15 17 31 18 13 15
217 212 215 219 218 213 216 221 218 216 210 206 217 229 226 216 219 232 209 194 210 213 209 205 202 204 204 210 214 218 219 210 200 200 201 199 199 199 194 197 202 197 194 193 188 195 195 190 190 187 182 178 174 173 174 179 186 186 183 183 183 188 185 176 184 194 191 193 196 200 206 207 207 203 198 193 181 169 166 172 176 173 162 132 94 54 31 349 330 356 23 25 8 13 22 19 10
207 200 209 210 209 216 215 218 216 213 210 201 208 230 227 214 216 228 209 185 193 197 201 203 205 206 203 209 211 213 212 204 199 199 202 203 202 203 200 201 203 195 195 194 190 196 194 187 187 183 180 178 175 178 181 181 190 197 184 175 183 191 186 186 196 198 193 196 200 205 207 202 200 198 190 177 169 166 168 167 157 156 136 94 60 44 26 347 358 11 15 20 14 19 24 21 18
205 198 214 213 209 223 213 213 213 212 214 193 191 231 231 217 216 213 188 173 179 187 199 203 205 206 204 207 209 211 208 201 199 197 200 205 205 207 203 201 199 192 197 201 193 192 189 184 184 181 178 180 182 183 184 184 191 198 182 176 190 193 191 198 201 198 196 200 209 209 200 196 192 187 177 162 163 167 159 152 145 152 133 79 53 42 18 349 14 18 13 17 21 27 23 22 29
201 198 214 218 218 223 207 207 207 207 209 187 192 237 238 234 222 196 174 171 179 191 202 206 207 206 206 207 208 209 207 202 200 196 198 204 207 208 203 198 198 190 195 207 202 191 186 181 181 181 177 180 185 183 186 189 190 194 185 185 198 197 195 200 198 195 198 205 210 201 188 187 180 172 161 151 160 163 153 157 162 165 148 97 62 35 6 11 27 26 22 19 22 28 21 24 39
196 198 208 214 221 224 206 202 199 199 196 186 200 236 239 247 219 176 172 178 187 204 209 210 213 210 208 209 208 207 204 202 200 196 199 207 209 208 202 199 200 193 195 209 205 190 187 182 179 184 179 180 187 185 188 192 190 191 190 193 198 195 194 196 194 194 200 205 199 182 176 176 163 154 151 150 159 163 167 177 178 175 142 95 44 14 15 40 35 30 25 11 9 26 33 23 36
199 206 212 210 214 225 212 199 196 197 189 187 206 229 239 239 184 166 178 183 191 208 212 211 214 211 209 208 206 204 200 199 199 198 206 214 212 206 202 201 202 197 199 209 203 188 189 185 181 185 181 183 190 190 192 194 193 192 193 198 195 190 192 194 193 196 200 198 187 175 171 170 159 154 163 165 165 163 169 190 200 185 130 99 34 352 54 66 23 16 14 357 352 6 56 37 0
196 206 215 213 213 220 213 195 194 196 191 193 207 225 242 228 172 172 179 181 191 204 208 210 212 211 208 207 205 203 201 199 198 200 208 213 209 204 205 203 201 197 198 204 200 192 192 186 182 184 182 186 195 197 195 194 196 195 194 199 194 189 193 195 193 194 198 193 185 182 171 167 164 161 174 172 168 172 181 208 221 202 108 85 59 28 31 30 0 0 356 348 345 334 44 91 234
195 201 209 216 215 216 213 196 186 192 193 199 206 220 233 223 180 177 177 181 193 200 206 209 211 212 208 205 206 205 203 199 197 201 209 212 208 203 203 203 199 195 193 193 192 188 186 182 181 184 184 192 200 199 195 194 199 198 193 196 197 197 197 197 195 193 198 195 192 191 174 164 167 170 176 169 177 191 191 209 232 275 324 355 60 50 0 347 349 352 353 350 346 323 303 131 154
205 203 206 215 215 217 216 199 181 188 191 202 209 217 223 218 195 182 179 185 195 202 207 209 211 212 209 207 208 207 205 199 197 202 209 212 209 203 200 201 199 192 189 185 182 180 181 180 181 186 189 198 200 199 203 204 202 197 194 197 199 204 202 197 197 199 201 196 194 200 179 165 174 182 184 181 194 200 188 209 247 277 301 25 32 21 334 330 334 346 6 358 353 337 309 130 148
221 212 209 213 215 214 209 195 178 185 192 204 212 220 222 218 209 190 180 186 197 204 205 207 211 211 210 209 208 208 205 196 197 202 206 208 208 205 199 201 200 190 185 181 176 178 181 179 182 187 192 202 204 205 213 212 205 198 197 202 203 209 205 194 197 206 207 202 199 199 185 179 188 195 198 197 205 205 201 237 269 294 329 349 340 345 332 326 331 356 40 39 53 91 100 134 151
224 213 206 206 209 204 193 184 174 183 198 211 215 224 226 221 217 198 183 186 196 202 204 208 211 211 211 210 209 209 200 191 197 203 203 204 205 204 200 201 200 188 181 178 175 178 182 183 187 189 192 202 208 210 212 213 213 204 200 203 207 211 202 191 201 211 212 215 209 201 195 197 202 207 214 214 219 221 218 256 312 331 344 341 336 337 331 335 358 37 77 95 109 112 121 159 166
210 202 198 200 201 194 187 185 181 186 203 218 218 224 227 223 218 201 191 193 198 201 206 210 211 212 213 213 211 204 196 195 202 207 204 202 203 203 201 202 199 189 182 177 175 179 185 190 191 191 196 206 211 212 210 211 212 205 204 206 211 214 200 195 206 208 212 215 207 199 193 197 202 208 218 222 228 237 265 324 335 337 341 338 331 334 347 16 56 81 101 116 117 116 128 176 183
205 202 203 206 200 195 193 189 187 189 202 226 227 226 230 221 212 204 200 201 201 201 207 212 215 217 217 216 212 202 198 199 204 207 207 203 202 203 202 202 200 192 183 177 177 186 192 195 193 192 200 209 211 212 210 207 205 205 205 205 215 216 203 205 206 199 203 201 191 188 189 195 204 213 223 229 254 320 336 331 329 328 331 328 320 338 53 82 91 99 109 121 124 127 140 170 191
208 213 215 212 199 198 199 181 177 185 198 218 223 221 230 215 203 205 202 202 204 200 203 211 215 219 222 219 215 208 205 204 205 208 211 206 203 205 203 203 202 192 186 185 188 197 197 196 196 193 194 199 207 210 207 206 206 208 204 202 216 217 207 207 203 200 200 190 187 193 198 206 213 221 238 325 340 339 327 320 318 314 313 301 211 122 111 106 102 104 110 117 123 131 144 159 168
208 213 223 223 199 197 197 174 169 185 201 201 204 221 230 210 208 210 198 198 205 200 203 210 213 216 218 216 214 212 211 209 208 210 214 213 208 208 206 202 199 189 186 193 198 201 199 199 202 194 186 193 203 206 206 207 208 207 203 201 212 219 213 201 197 212 210 196 204 205 206 209 203 219 2 357 341 329 317 311 304 288 250 182 143 125 116 109 103 104 111 114 117 123 133 146 142
210 196 207 219 192 189 189 175 177 199 209 197 199 222 238 212 210 209 197 197 201 200 206 209 209 209 210 212 211 210 210 209 210 211 214 217 212 210 209 202 196 187 186 196 200 197 195 202 207 195 184 194 203 204 205 207 208 205 203 204 206 215 217 198 190 207 209 204 214 209 206 197 156 35 10 352 337 328 318 302 247 192 166 149 132 122 113 109 108 111 114 112 114 119 127 137 133
208 175 186 199 196 194 188 182 193 209 213 197 194 213 239 230 211 199 195 198 200 202 206 206 205 205 208 213 211 209 208 207 209 211 213 216 212 210 209 200 194 190 192 200 203 198 192 199 205 191 181 193 201 204 205 204 205 204 203 205 200 203 214 201 193 201 201 200 203 200 199 179 116 28 14 1 350 340 329 149 153 155 148 137 126 120 114 114 117 117 115 111 113 117 122 131 129
192 157 174 189 195 200 194 193 206 208 210 205 197 205 229 238 214 191 191 198 205 205 202 200 202 205 210 213 211 209 207 206 209 212 213 213 210 211 209 199 196 195 198 205 208 204 193 194 200 186 179 189 197 201 200 197 200 201 201 202 199 202 207 199 194 197 196 192 190 186 184 182 162 38 29 16 4 23 139 142 146 146 139 132 124 120 118 120 120 117 115 112 111 112 113 117 117
171 155 165 169 178 193 196 202 206 204 213 218 206 200 213 236 215 191 193 201 207 205 197 196 200 206 211 212 209 207 206 205 208 212 214 213 210 211 207 197 196 197 202 208 210 206 193 188 190 180 178 185 190 193 193 191 195 196 201 206 208 211 201 191 192 193 190 182 173 174 185 212 196 60 37 26 23 149 149 147 147 142 134 128 123 122 123 121 120 117 114 112 110 109 107 105 102
169 161 163 155 164 180 189 206 207 202 219 225 214 201 207 231 217 198 203 206 205 198 191 194 199 206 210 210 207 205 203 203 205 209 213 212 208 206 203 197 196 198 204 206 204 204 193 181 179 174 177 183 186 190 189 188 192 195 204 212 216 212 197 190 192 186 178 164 159 187 217 252 21 55 28 28 98 162 156 151 146 139 131 126 124 124 125 122 120 119 115 113 110 107 104 99 96
180 174 171 158 164 171 177 196 203 209 223 225 217 205 207 226 223 206 205 203 199 194 192 194 197 204 207 206 205 202 200 201 201 205 209 209 203 200 201 198 195 197 200 197 197 202 195 179 173 175 181 183 186 193 192 189 193 200 208 210 209 203 191 185 181 170 163 163 182 209 235 266 293 49 27 23 174 167 158 152 143 136 131 129 129 127 126 123 120 119 118 116 112 108 103 99 99
186 189 183 171 169 170 184 189 193 213 224 219 212 207 210 226 229 219 206 193 191 192 197 199 199 203 204 203 202 198 198 200 199 201 204 203 198 198 199 195 192 193 194 193 194 201 198 182 174 177 182 181 183 193 197 196 200 207 207 198 191 193 190 178 164 166 169 179 203 218 240 263 262 5 356 332 191 171 160 152 142 138 135 133 132 130 127 124 122 122 121 118 114 108 105 104 103
187 193 188 185 177 172 188 189 192 210 199 147 203 208 219 232 228 225 213 189 188 192 198 205 206 205 203 200 198 195 196 199 197 196 200 200 198 199 198 192 191 192 192 195 196 198 199 186 175 176 182 185 187 194 199 198 202 208 202 186 176 185 189 175 166 180 188 201 217 218 236 254 263 306 303 249 189 173 162 152 144 141 138 137 134 131 128 126 126 125 122 118 114 111 109 107 101
189 196 194 198 191 178 190 191 194 206 186 160 186 203 223 229 220 225 211 190 189 193 198 206 209 207 203 198 194 194 196 198 196 194 197 200 200 200 195 189 192 193 193 200 201 197 198 189 177 178 185 192 194 195 197 198 200 204 196 181 173 177 182 176 177 191 201 213 222 221 242 261 278 291 274 212 181 171 162 152 146 143 142 140 134 131 129 128 127 125 122 119 115 113 109 105 101
189 196 199 206 201 182 182 183 195 213 190 173 185 205 224 208 77 119 203 195 190 190 194 198 198 197 195 192 192 193 196 197 194 192 194 199 200 198 194 192 195 194 194 203 202 194 195 189 181 182 186 195 200 196 196 201 203 199 189 179 174 174 177 181 188 199 206 214 224 235 253 271 285 281 221 183 172 166 159 152 148 146 146 142 135 133 131 127 127 125 123 120 115 111 108 107 105
180 196 202 203 206 200 180 125 60 208 208 190 193 212 220 209 161 165 188 199 191 184 188 192 192 187 184 187 190 193 196 193 190 190 191 194 197 197 197 197 198 197 199 205 197 187 190 188 185 184 181 192 205 201 200 206 201 192 183 176 174 176 181 187 195 204 209 218 237 250 263 280 285 235 178 170 168 163 156 151 151 149 147 142 136 133 129 127 129 128 125 119 112 110 111 110 105
182 193 193 188 209 221 202 184 162 191 218 205 197 214 219 221 206 169 181 196 191 187 190 192 194 191 188 191 193 195 194 189 187 189 190 191 194 197 198 196 199 200 201 203 193 183 186 188 188 186 180 188 204 203 203 206 196 185 181 178 177 180 185 190 197 205 210 224 248 259 271 285 260 179 166 165 165 161 155 151 152 150 146 141 136 133 129 131 132 128 125 119 114 114 112 108 103
216 201 185 178 198 202 193 199 191 196 216 218 210 219 224 222 204 168 183 195 189 189 193 195 196 195 198 200 197 195 190 184 187 189 187 190 193 196 196 196 199 202 202 201 191 183 186 189 190 189 183 188 202 204 200 199 192 184 181 181 183 186 189 194 198 202 206 223 253 263 279 280 193 165 162 163 162 159 156 152 150 149 146 141 138 135 133 133 132 129 126 122 117 114 110 107 106
236 222 197 193 203 198 195 206 204 199 210 219 218 221 224 225 209 183 187 191 189 192 196 201 203 200 203 205 199 191 185 184 187 186 185 191 194 194 195 197 199 200 199 198 191 185 188 190 189 189 187 189 200 207 200 193 188 184 183 185 188 188 191 197 199 198 204 229 259 268 278 235 171 162 161 162 161 158 156 151 149 149 147 143 141 139 137 134 134 133 131 124 117 112 111 112 110
204 210 196 193 201 203 202 209 215 214 212 212 217 226 227 211 202 203 198 188 189 195 198 204 206 205 207 205 195 187 185 186 185 182 184 190 193 193 196 198 197 196 195 195 193 188 186 187 187 189 193 192 195 202 199 192 188 184 185 190 189 188 194 199 197 197 210 239 259 268 266 187 168 163 161 163 162 158 155 151 150 150 148 146 145 142 139 136 138 138 133 125 118 116 119 117 114
193 200 195 193 195 197 200 204 208 217 226 220 217 234 236 165 176 204 206 203 203 202 204 209 211 211 208 199 191 187 186 184 180 178 182 188 190 192 196 197 196 196 195 192 191 184 180 186 188 189 196 194 191 193 193 193 193 187 187 190 188 190 199 199 197 204 221 240 249 258 233 179 169 164 163 166 164 160 156 154 154 152 151 150 148 146 142 141 141 140 134 127 122 124 126 122 119